Overview Statistics Trail Chart Weather Telemetry Raw packets
 

This is the latest recevied weather packets stored in our database for station/object N7ZEF. If no packets are shown the sender has not sent any weather packets the latest 10 day(s).

<< 10 11 12 13 14 15 16 >>
Time Temp. Humidity Pressure Rain* Wind** Luminosity Snow
1778001428 1.67° C 100% 1014.1 hPa 0.25 mm - - -
1778000826 1.11° C 99% 1014.2 hPa 0.25 mm - - -
1778000223 1.11° C 99% 1014.2 hPa 0.25 mm - - -
1777999622 1.67° C 97% 1014.2 hPa 0 mm - - -
1777999020 1.67° C 97% 1014.2 hPa 0 mm - - -
1777998419 2.22° C 96% 1014.4 hPa 0 mm - - -
1777997817 2.78° C 96% 1014.2 hPa 0 mm - - -
1777997216 2.22° C 96% 1014.4 hPa 0 mm - - -
1777996615 2.22° C 97% 1014.2 hPa 0 mm - - -
1777996013 2.22° C 98% 1014.4 hPa 0.25 mm - - -
1777995416 1.67° C 98% 1014.4 hPa 0.25 mm - - -
1777994810 1.67° C 98% 1014.4 hPa 0.25 mm - - -
1777994209 1.67° C 99% 1014.4 hPa 0.25 mm - - -
1777993608 2.22° C 99% 1014.2 hPa 0.25 mm - - -
1777993006 1.67° C 100% 1014.2 hPa 0.25 mm - - -
1777992404 1.67° C 100% 1014.2 hPa 0.51 mm - - -
1777991803 1.11° C 100% 1014.4 hPa 0.51 mm - - -
1777991201 1.11° C 100% 1014.6 hPa 0.51 mm - - -
1777990600 1.11° C 100% 1014.2 hPa 0.51 mm - - -
1777989998 1.11° C 100% 1014.4 hPa 0.51 mm - - -
1777989397 1.11° C 100% 1014.4 hPa 0.51 mm - - -
1777988799 1.11° C 100% 1014.5 hPa 0.25 mm - - -
1777988194 1.11° C 100% 1014.4 hPa 0.25 mm - - -
1777987593 1.11° C 100% 1014.2 hPa 0.25 mm - - -
1777986991 1.11° C 99% 1014.1 hPa 0.25 mm - - -

* Rain latest hour (hover to see other rain measurements)
** Current wind speed in m/s (hover to see current wind gust speed)